Wind_Speed
42 42 44 44 44 44 43 43 42 43 44 45 46 47 48 48 48 48 49 49 50 50 51 51 51 51 51 50 50 50 50 50 50 50 50 51 51 51 52 52 52 52 52
41 42 45 45 45 45 45 44 45 45 46 46 48 48 48 49 50 50 50 50 50 51 51 51 51 52 51 51 51 50 50 49 49 49 49 49 50 50 51 51 52 52 52
42 43 44 45 46 46 46 46 47 47 47 47 48 48 49 50 51 51 51 51 51 51 51 51 51 51 51 51 51 50 50 50 50 49 49 49 49 49 50 51 51 52 53
42 44 45 45 46 47 47 48 49 49 48 48 48 48 49 50 51 52 51 51 51 51 50 50 51 51 50 50 50 50 50 50 51 51 50 50 50 50 51 51 51 52 53
43 45 46 47 47 48 48 49 49 49 49 49 49 49 50 50 50 51 51 52 51 51 51 51 50 50 50 50 50 50 50 50 50 51 50 50 50 50 50 51 51 52 53
44 45 46 47 48 48 48 48 48 49 50 51 51 51 51 51 51 51 51 51 51 51 50 50 50 50 50 50 50 50 50 50 50 50 50 50 49 50 50 50 51 52 52
44 44 45 46 47 47 48 48 49 49 50 51 51 51 51 51 51 51 51 50 50 51 50 50 49 49 49 49 49 49 49 50 50 50 50 50 50 51 51 51 52 52 53
43 44 45 45 46 47 48 48 48 49 49 50 50 50 50 50 50 50 50 49 49 48 48 48 48 48 48 47 48 49 50 50 50 51 51 51 51 52 52 52 53 53 53
44 45 45 46 46 47 47 48 48 49 49 49 49 49 50 50 50 50 49 49 49 48 47 47 47 47 47 47 48 49 49 50 51 51 52 52 52 52 52 52 52 52 52
44 45 46 46 47 47 48 48 48 48 48 48 48 48 49 49 49 50 49 49 48 48 48 48 47 46 47 47 48 48 49 49 50 51 52 52 52 52 52 52 51 51 51
44 45 46 47 47 47 47 47 48 48 48 48 48 48 48 48 48 48 49 48 47 47 47 48 47 47 48 48 48 49 49 49 50 51 51 52 52 51 51 50 50 50 49
45 46 46 47 47 47 47 47 47 47 47 47 48 48 48 48 48 48 48 48 47 47 47 47 47 48 48 48 49 49 49 49 50 50 50 50 50 50 49 49 49 48 48
43 44 45 45 46 46 46 45 46 47 47 47 48 48 48 48 48 48 47 47 47 47 46 47 48 48 49 49 49 49 49 49 50 49 49 49 49 48 48 47 47 47 47
42 43 43 43 44 44 45 45 46 46 47 47 47 47 47 47 47 47 47 47 46 46 46 46 47 48 49 50 50 50 51 51 50 49 49 48 48 47 46 46 46 45 45
40 40 41 42 43 43 44 44 46 46 46 46 46 46 46 46 46 46 47 46 46 46 46 47 48 48 48 48 49 49 50 50 50 49 48 48 47 46 46 45 45 45 44
39 39 39 40 41 42 42 43 43 44 45 45 45 45 45 45 44 45 45 45 45 45 46 46 47 47 48 48 49 49 49 49 49 49 48 47 46 46 46 46 45 44 44
38 38 38 39 40 40 41 42 42 43 43 44 44 44 44 44 43 43 43 44 45 45 46 46 46 46 46 47 47 47 47 47 47 47 47 46 46 45 45 44 44 44 43
37 37 38 38 39 41 41 41 42 42 41 41 42 42 42 42 42 43 43 44 45 45 45 45 45 45 45 45 44 44 44 44 45 44 44 44 44 44 44 44 43 43 43
37 38 38 39 40 41 41 41 41 41 41 41 41 41 41 41 42 42 42 43 43 43 44 44 43 43 43 42 42 42 43 43 43 42 42 42 42 43 43 42 42 42 42
37 38 38 39 40 40 40 40 40 40 40 40 40 40 40 40 40 40 41 41 42 42 42 42 42 41 41 42 41 41 41 41 40 40 40 40 40 40 41 40 40 41 41
37 38 39 39 39 39 39 38 38 38 39 38 38 38 38 39 39 40 40 40 40 41 41 41 40 40 40 40 40 39 39 39 38 38 38 38 38 38 38 39 39 40 40
37 38 38 38 38 38 37 37 36 37 38 38 37 37 37 37 38 39 39 39 39 39 39 39 39 38 38 38 38 38 37 37 37 37 36 37 37 37 38 38 38 38 38
38 38 38 38 37 36 36 36 36 36 37 37 37 37 37 37 37 38 39 39 38 38 38 38 38 37 37 36 36 36 35 35 35 35 36 36 37 37 37 36 36 36 36
37 37 37 37 36 35 35 35 35 35 35 36 36 36 36 36 37 37 38 38 38 37 37 37 37 36 36 35 34 34 34 34 34 34 35 35 35 36 36 35 35 35 35
35 35 35 35 34 34 34 34 34 34 34 35 35 36 36 37 37 37 37 37 36 36 36 36 36 36 35 34 34 33 33 33 34 34 34 34 34 34 34 34 34 34 34
33 33 33 33 33 33 32 33 33 34 34 34 35 35 36 36 36 36 36 35 35 35 35 35 35 35 34 33 33 33 32 33 34 34 33 33 33 33 33 33 33 33 32
Wind_Direction
262 260 260 260 261 261 261 261 262 263 264 264 264 265 266 267 268 268 269 270 271 272 272 271 271 271 270 271 271 270 270 270 270 269 267 267 267 267 267 267 267 266 266
261 260 259 260 261 262 263 263 264 265 266 266 266 265 266 267 268 269 270 271 272 272 272 271 270 270 269 269 270 270 270 270 270 269 269 268 269 269 269 268 267 267 266
262 262 262 262 262 263 264 266 266 267 267 268 267 267 267 267 268 269 271 272 272 272 272 272 271 270 270 269 269 269 270 270 270 270 270 270 270 270 270 270 269 268 267
263 263 263 264 265 265 266 267 268 269 269 268 268 268 268 268 269 270 271 271 272 272 272 272 271 271 270 269 270 270 270 271 270 270 270 270 271 271 272 271 271 270 269
264 264 264 265 266 267 268 268 268 268 268 268 268 269 269 270 270 270 271 272 272 272 273 273 272 270 269 269 269 269 269 269 270 270 270 270 271 272 273 272 272 271 271
267 266 266 266 267 268 268 269 269 268 268 269 269 270 270 271 271 271 271 272 272 272 272 271 270 270 269 269 268 267 268 268 269 269 270 271 272 273 273 273 273 273 272
269 269 268 268 268 267 268 269 269 269 269 270 270 271 271 271 271 272 272 272 272 271 270 268 268 269 269 267 266 266 267 268 269 271 272 272 273 273 273 273 273 273 273
270 270 269 269 269 268 268 269 269 269 270 270 271 272 272 272 272 273 273 272 272 271 269 269 268 267 267 267 266 267 268 269 271 271 272 273 273 273 274 274 273 273 273
271 271 270 269 269 269 269 270 270 270 271 271 271 272 273 272 273 273 273 272 271 270 269 269 268 266 266 266 267 268 269 270 271 272 272 273 273 273 273 274 273 273 272
271 270 270 269 269 270 270 270 270 269 270 271 272 273 273 273 273 273 273 272 271 270 269 268 267 266 266 266 268 269 270 271 272 272 272 273 273 273 273 273 273 273 272
273 273 271 270 270 270 270 270 269 269 270 271 272 272 273 272 273 273 273 272 271 271 270 268 268 268 268 268 269 270 272 272 272 273 273 273 274 274 274 273 273 273 272
274 274 273 272 271 272 272 271 270 269 270 271 272 272 272 272 273 273 272 272 273 273 272 272 271 270 270 270 269 270 272 273 274 274 273 273 273 273 273 273 272 272 272
275 275 274 274 273 272 272 272 271 271 271 272 273 273 273 272 273 273 272 272 273 273 273 273 273 272 272 271 271 271 272 273 274 274 274 274 274 273 272 271 271 271 273
277 276 275 274 273 273 272 272 272 272 273 273 274 273 273 273 273 272 272 272 273 274 274 273 273 274 274 273 273 273 273 274 275 275 274 274 273 272 271 271 272 272 273
278 277 275 274 273 273 274 274 274 273 274 274 273 273 273 273 272 271 272 272 274 274 274 274 274 274 274 274 274 274 274 275 275 275 274 273 272 271 270 270 271 272 273
278 278 277 276 275 276 276 276 276 275 275 274 273 273 273 272 271 270 271 272 273 274 274 274 275 275 275 275 275 275 275 274 274 274 274 274 272 270 270 269 270 271 272
277 278 278 277 277 277 278 279 278 277 275 274 273 273 272 272 271 271 272 272 273 274 275 275 276 276 276 276 276 276 276 275 274 273 273 272 271 270 270 270 271 271 271
277 278 279 279 280 280 280 280 279 278 276 274 273 273 272 272 272 272 273 273 274 275 275 276 276 276 276 277 277 276 276 275 274 273 272 272 270 270 269 270 271 271 272
277 279 280 281 282 283 282 281 279 277 276 274 273 272 271 271 272 273 273 274 275 276 276 276 276 276 277 277 276 276 275 275 274 273 272 272 271 270 269 270 271 272 272
280 281 282 283 284 284 283 281 279 278 276 275 274 272 272 272 273 274 274 275 275 276 277 277 276 276 276 276 276 275 275 274 274 274 273 272 272 271 270 270 271 272 273
282 282 283 284 284 284 283 281 280 278 277 275 274 273 273 273 273 274 275 276 277 277 278 277 277 277 276 276 276 275 274 274 274 273 273 272 271 272 272 272 272 273 273
284 283 283 284 284 283 283 282 281 279 277 275 274 274 273 274 274 275 276 277 278 278 278 278 277 276 276 276 275 275 275 274 272 271 270 270 271 272 273 273 273 273 273
283 283 283 283 284 283 283 281 281 280 278 276 274 274 274 275 275 276 277 278 279 279 279 279 278 277 276 275 275 275 274 273 273 271 270 269 270 272 273 273 272 271 271
284 282 281 281 282 282 282 282 282 282 280 278 275 274 274 275 276 277 278 279 279 279 279 278 278 277 275 274 275 274 273 272 272 271 270 270 271 271 271 271 270 269 269
282 282 281 281 281 282 282 283 284 284 282 280 278 276 276 276 277 277 278 279 280 280 279 278 278 276 275 274 273 273 273 272 271 271 270 270 270 270 270 269 268 268 268
282 281 281 281 281 282 282 283 284 285 283 282 280 279 278 278 278 278 279 279 280 279 279 278 277 275 273 271 271 272 272 272 271 271 270 270 269 269 269 268 267 268 268
Height
5604 5604 5605 5605 5605 5606 5606 5607 5608 5608 5608 5608 5608 5608 5608 5607 5607 5606 5606 5605 5604 5603 5601 5600 5599 5597 5596 5595 5594 5593 5592 5591 5591 5592 5591 5591 5590 5590 5590 5589 5589 5589 5590
5592 5593 5593 5593 5594 5594 5594 5595 5595 5595 5595 5595 5595 5594 5594 5594 5593 5593 5592 5591 5589 5588 5586 5585 5584 5583 5582 5581 5580 5580 5579 5578 5577 5578 5578 5577 5576 5576 5575 5575 5575 5574 5575
5581 5581 5581 5581 5582 5582 5583 5583 5582 5582 5582 5582 5581 5581 5580 5580 5579 5579 5578 5576 5575 5574 5572 5570 5569 5568 5568 5567 5567 5566 5565 5564 5563 5563 5564 5563 5563 5562 5561 5561 5561 5560 5560
5569 5569 5569 5569 5569 5570 5570 5570 5569 5569 5569 5568 5567 5567 5567 5566 5565 5564 5563 5562 5561 5559 5557 5556 5555 5554 5553 5553 5552 5552 5551 5551 5550 5550 5550 5549 5549 5547 5546 5546 5546 5546 5545
5557 5557 5557 5556 5556 5556 5556 5556 5556 5555 5555 5554 5554 5553 5552 5551 5550 5549 5548 5547 5546 5545 5543 5541 5540 5539 5538 5538 5538 5538 5537 5537 5536 5536 5536 5535 5535 5534 5532 5531 5531 5531 5530
5544 5544 5543 5543 5543 5543 5542 5542 5542 5541 5541 5540 5540 5539 5538 5537 5536 5535 5533 5532 5531 5529 5528 5526 5525 5525 5524 5524 5524 5523 5523 5523 5522 5522 5522 5522 5521 5520 5518 5517 5516 5516 5516
5531 5530 5530 5529 5529 5529 5528 5528 5527 5527 5526 5526 5525 5524 5524 5522 5521 5520 5518 5517 5516 5514 5513 5512 5511 5510 5510 5510 5510 5509 5509 5509 5508 5508 5507 5507 5507 5506 5504 5502 5501 5500 5500
5518 5517 5517 5516 5515 5515 5514 5514 5513 5513 5512 5512 5511 5510 5509 5508 5506 5505 5504 5502 5501 5499 5498 5498 5497 5497 5496 5496 5496 5496 5495 5495 5495 5494 5493 5493 5491 5490 5488 5487 5485 5485 5485
5504 5504 5503 5502 5501 5501 5500 5500 5499 5498 5498 5497 5497 5496 5495 5494 5492 5490 5489 5487 5486 5486 5485 5484 5483 5483 5483 5482 5482 5482 5482 5481 5480 5479 5478 5477 5476 5475 5473 5471 5470 5469 5469
5491 5490 5489 5488 5487 5486 5486 5485 5484 5484 5483 5483 5482 5481 5480 5479 5478 5476 5474 5473 5473 5472 5471 5470 5470 5469 5469 5468 5467 5467 5467 5467 5466 5465 5463 5462 5461 5459 5457 5456 5454 5453 5452
5476 5475 5474 5474 5473 5472 5471 5470 5470 5469 5469 5468 5468 5467 5466 5465 5463 5461 5460 5459 5458 5458 5457 5456 5456 5455 5455 5454 5453 5453 5453 5452 5451 5450 5448 5447 5446 5445 5443 5441 5439 5438 5437
5462 5461 5460 5459 5458 5458 5457 5456 5455 5455 5454 5454 5453 5452 5451 5450 5448 5447 5446 5444 5444 5443 5443 5442 5442 5441 5440 5440 5439 5438 5437 5436 5435 5434 5433 5432 5431 5430 5428 5427 5425 5424 5423
5448 5446 5445 5444 5444 5443 5442 5441 5441 5440 5440 5439 5438 5438 5437 5435 5434 5433 5432 5431 5429 5429 5428 5428 5427 5426 5425 5425 5424 5423 5422 5421 5420 5419 5418 5417 5416 5415 5413 5412 5411 5410 5409
5434 5433 5431 5430 5429 5429 5428 5427 5426 5426 5425 5425 5424 5423 5422 5421 5420 5419 5418 5417 5416 5414 5414 5413 5413 5412 5411 5410 5409 5408 5407 5406 5404 5403 5403 5402 5401 5400 5399 5398 5397 5396 5395
5421 5419 5418 5417 5416 5415 5414 5413 5412 5412 5410 5410 5409 5408 5407 5407 5406 5405 5403 5403 5402 5401 5399 5399 5398 5397 5396 5395 5394 5393 5392 5391 5389 5389 5388 5387 5386 5385 5385 5384 5383 5382 5382
5409 5407 5405 5404 5403 5402 5401 5400 5398 5397 5396 5394 5393 5393 5392 5392 5391 5390 5389 5388 5387 5386 5384 5384 5383 5382 5381 5380 5379 5378 5377 5375 5374 5373 5373 5372 5372 5371 5371 5370 5369 5368 5368
5396 5395 5393 5392 5390 5389 5387 5386 5385 5384 5382 5380 5379 5378 5377 5377 5376 5376 5375 5374 5373 5371 5370 5370 5369 5368 5366 5365 5364 5363 5362 5360 5359 5359 5358 5358 5357 5357 5356 5356 5355 5355 5354
5384 5383 5381 5380 5378 5376 5374 5373 5371 5370 5369 5367 5366 5364 5363 5363 5362 5362 5361 5359 5358 5357 5356 5356 5355 5353 5352 5351 5349 5348 5347 5346 5345 5344 5344 5343 5343 5343 5343 5342 5342 5341 5341
5373 5371 5370 5368 5366 5363 5361 5359 5357 5356 5355 5354 5353 5351 5350 5349 5349 5348 5347 5346 5345 5344 5343 5342 5341 5339 5338 5337 5336 5334 5333 5332 5331 5330 5330 5330 5329 5329 5328 5328 5328 5328 5327
5361 5359 5357 5356 5353 5351 5348 5346 5345 5343 5342 5340 5339 5339 5338 5337 5336 5335 5334 5333 5332 5331 5330 5329 5327 5326 5325 5323 5322 5321 5320 5319 5318 5317 5317 5316 5316 5315 5315 5315 5314 5314 5314
5349 5347 5345 5343 5341 5338 5336 5334 5332 5330 5329 5328 5327 5326 5325 5324 5323 5323 5321 5320 5319 5318 5317 5315 5314 5313 5311 5310 5309 5308 5307 5306 5305 5305 5304 5304 5303 5303 5302 5302 5301 5301 5300
5337 5335 5333 5330 5328 5326 5324 5321 5320 5318 5316 5315 5314 5313 5312 5311 5311 5310 5309 5308 5306 5305 5304 5303 5301 5300 5299 5297 5296 5295 5295 5294 5293 5293 5292 5292 5291 5291 5290 5289 5289 5288 5287
5325 5322 5320 5318 5316 5314 5312 5310 5308 5306 5305 5303 5302 5301 5300 5299 5298 5297 5296 5295 5294 5292 5291 5290 5289 5288 5286 5285 5284 5284 5283 5283 5282 5281 5280 5280 5280 5279 5278 5277 5277 5276 5275
5312 5310 5308 5306 5304 5302 5301 5299 5297 5295 5293 5292 5290 5289 5288 5287 5286 5285 5284 5282 5281 5280 5278 5277 5276 5275 5274 5273 5273 5272 5271 5271 5270 5269 5269 5268 5268 5267 5266 5266 5265 5264 5264
5300 5298 5296 5294 5293 5291 5289 5288 5286 5284 5282 5280 5279 5278 5277 5276 5274 5273 5272 5270 5269 5267 5266 5265 5264 5263 5263 5262 5261 5261 5260 5260 5259 5258 5257 5257 5256 5255 5254 5254 5253 5253 5252
5288 5287 5285 5283 5282 5280 5279 5277 5275 5273 5271 5269 5268 5266 5265 5264 5263 5261 5260 5258 5257 5256 5254 5253 5252 5252 5251 5250 5250 5250 5249 5248 5247 5246 5246 5245 5245 5244 5243 5243 5243 5242 5242